Regional Weather Roundup
Issued by NWS

Home | Current Version | Previous Version | Graphics & Text | Print | Product List | Glossary On
Versions: 1 2 3 4 5 6 7 8 9 10 11 12 13 14 15 16 17 18 19 20 21 22 23 24 25 26 27 28 29 30 31 32 33 34 35 36 37 38 39 40 41 42 43 44 45 46 47 48 49 50
000
ASUS43 KDMX 251306
RWRIA

WEATHER ROUNDUP FOR IOWA
NATIONAL WEATHER SERVICE DES MOINES IA
800 AM CDT WED APR 25 2018

NOTE: "FAIR" INDICATES FEW OR NO CLOUDS BELOW 12,000 FEET WITH NO
SIGNIFICANT WEATHER AND/OR OBSTRUCTIONS TO VISIBILITY.

* - THESE STATIONS ARE NOT NWS STATIONS...THUS NOT UNDER NWS
QUALITY CONTROL.  THEY ALSO DO NOT REPORT WEATHER SUCH
AS PRECIPITATION OR FOG.

IAZ001>003-012>014-020>022-031>034-043>046-251400-
   NORTHWEST IOWA

CITY           SKY/WX    TMP DP  RH WIND       PRES   REMARKS
CARROLL *      CLOUDY    41  36  81 N12       30.23R
CHEROKEE *     SUNNY     38  33  81 N9        30.27R WCI  31
DENISON *      CLOUDY    41  34  75 N10       30.26R
LE MARS *      CLOUDY    37  32  81 N8        30.28S WCI  31
ORANGE CITY *  SUNNY     37  34  87 NE9       30.27S WCI  31
SHELDON *      SUNNY     36  32  87 CALM      30.26S
SIOUX CITY     MOSUNNY   39  33  79 NW9       30.28R WCI  33
SPENCER        SUNNY     38  31  76 N12       30.25S WCI  30
STORM LAKE *   SUNNY     39  32  75 N14       30.25R WCI  31
$$

IAZ055>058-069>071-079>083-090>094-251400-
   SOUTHWEST IOWA

CITY           SKY/WX    TMP DP  RH WIND       PRES   REMARKS
ATLANTIC *     MIX PCPN  45  41  87 N9        30.23R
AUDUBON *      CLOUDY    43  37  81 N12       30.24R
CRESTON *      CLOUDY    46  41  81 N10       30.19R
HARLAN  *      CLOUDY    43  41  93 N6        30.27R
LAMONI         CLOUDY    49  37  63 N9        30.16R
RED OAK *      CLOUDY    45  43  93 N12       30.22R
SHENANDOAH *   CLOUDY    46  43  87 N9        30.22S
$$

IAZ047>049-059>061-072>074-084-251400-
   CENTRAL IOWA

CITY           SKY/WX    TMP DP  RH WIND       PRES   REMARKS
AMES           CLOUDY    44  35  70 N9        30.21R
ANKENY *       CLOUDY    46  37  71 N12       30.21R
BOONE *        CLOUDY    43  36  75 N10       30.20R
CHARITON *     CLOUDY    46  36  66 N10G16    30.15S
DES MOINES     CLOUDY    48  36  63 N10       30.19R
GRINNELL*      CLOUDY    45  35  67 N12       30.18F
KNOXVILLE *    CLOUDY    46  34  61 NE10      30.15R
MARSHALLTOWN   CLOUDY    44  37  76 N13       30.19R
NEWTON *       CLOUDY    45  36  70 NE15      30.17S
PELLA *        CLOUDY    46  35  65 N3        30.17S
PERRY *        FAIR      44  33  66 N13       30.22R
$$

IAZ004>006-015-016-023>025-035-036-251400-
   NORTH CENTRAL IOWA

CITY           SKY/WX    TMP DP  RH WIND       PRES   REMARKS
ALGONA *       SUNNY     37  32  81 N10       30.24S WCI  30
CLARION *      CLOUDY    39  32  75 N8        30.23R WCI  34
ESTHERVILLE    SUNNY     36  31  82 N8        30.25R WCI  30
FORT DODGE *   CLOUDY    41  32  70 N10       30.23R
MASON CITY     SUNNY     40  32  73 N8        30.24R WCI  34
FOREST CITY *  FAIR      39  32  75 N5        30.23R
WEBSTER CITY * CLOUDY    43  34  70 N14       30.20S
IOWA FALLS *   FAIR      43  36  75 N8        30.21S
$$

IAZ007>011-017>019-026>030-037>042-050>054-066-251400-
   NORTHEAST IOWA

CITY           SKY/WX    TMP DP  RH WIND       PRES   REMARKS
CEDAR RAPIDS   FAIR      49  35  58 NE12      30.16R
CHARLES CITY * FAIR      41  41 100 NE8       30.21R
CLINTON *        N/A     48  33  56 NE15G22   30.16R
DECORAH *      FAIR      41  36  81 NE8       30.18R
DUBUQUE        FAIR      46  34  62 NE10      30.16R
MONTICELLO *   FAIR      46  36  66 NE7       30.17R
OELWEIN *      FAIR      43  37  81 NE9G15    30.19R
WATERLOO       FAIR      45  36  70 N12       30.19R
$$

IAZ064-065-067-068-078-251400-
   EAST CENTRAL IOWA

CITY           SKY/WX    TMP DP  RH WIND       PRES   REMARKS
DAVENPORT      FAIR      48  32  53 NE16      30.17R
IOWA CITY      FAIR      49  35  58 N10       30.17R
MT. PLEASANT * CLOUDY    50  36  57 NE13      30.13S
MUSCATINE *    PTSUNNY   52  32  46 NE12G17   30.16R
QUAD CITIES    FAIR      50  33  52 NE12      30.14R
$$

IAZ062-063-075>077-085>089-095>099-251400-
   SOUTHEAST IOWA

CITY           SKY/WX    TMP DP  RH WIND       PRES   REMARKS
BURLINGTON     CLOUDY    50  34  54 NE16      30.12R
FAIRFIELD *    CLOUDY    48  36  61 N12       30.13S
FORT MADISON * CLOUDY    50  36  57 E13G20    30.12S
KEOKUK *       CLOUDY    50  37  62 NE13G24   30.10F
OSKALOOSA *    FAIR      47  35  63 NE13G18   30.15S
CENTERVILLE *  FAIR      48  37  66 N15       30.14S
OTTUMWA        CLOUDY    48  36  63 N12       30.14S
WASHINGTON *   CLOUDY    52  37  58 NE14      30.15S
$$

ABBREVIATIONS USED IN REMARKS
   TC - TEMPERATURES IN CELSIUS
  WCI - WIND CHILL INDEX
   HX - HEAT INDEX
  VSB - VISIBILITY
$$





USA.gov is the U.S. government's official web portal to all federal, state and local government web resources and services.